N7BTW-13 Weather Reports


time (UTC)temp
C
wind
direction
speed
KPH
gust
KPH
rain 1hr
cm
rain 24hr
cm
rain mn
cm
humidity
%
barometer
mb
20260505071007 12 135 0.0 3.2 0.00 0.00 0.00 93 1013.6
20260505070010 12 270 0.0 3.2 0.00 0.00 0.00 91 1013.5
20260505065007 12 326 0.0 4.8 0.00 0.00 0.00 91 1013.3
20260505064009 13 171 1.6 4.8 0.00 0.00 0.00 90 1013.3
20260505063010 13 23 0.0 1.6 0.00 0.00 0.00 89 1013.1
20260505062006 13 270 3.2 6.4 0.00 0.00 0.00 89 1012.9
20260505061009 14 221 3.2 4.8 0.00 0.00 0.00 89 1012.8
20260505060009 14 245 3.2 4.8 0.00 0.00 0.00 88 1012.8
20260505055010 14 198 3.2 6.4 0.00 0.00 0.00 88 1012.8
20260505054008 15 178 3.2 4.8 0.00 0.00 0.00 86 1012.7
20260505053007 15 259 3.2 6.4 0.00 0.00 0.00 85 1012.7
20260505052008 15 236 1.6 4.8 0.00 0.00 0.00 85 1012.6
20260505051005 15 192 3.2 4.8 0.00 0.00 0.00 84 1012.5
20260505041010 18 212 1.6 3.2 0.00 0.00 0.00 76 1011.8
20260505040010 18 250 3.2 6.4 0.00 0.00 0.00 74 1011.5
20260505035011 19 252 3.2 6.4 0.00 0.00 0.00 73 1011.4
20260505034007 20 243 3.2 4.8 0.00 0.00 0.00 73 1011.2
20260505033008 20 235 1.6 4.8 0.00 0.00 0.00 72 1011.0
20260505032008 21 278 3.2 9.7 0.00 0.00 0.00 70 1010.9
20260505031008 21 17 3.2 6.4 0.00 0.00 0.00 69 1010.9
20260505030007 21 215 3.2 6.4 0.00 0.00 0.00 67 1010.8
20260505025008 22 224 3.2 4.8 0.00 0.00 0.00 66 1010.7
20260505024006 22 239 1.6 3.2 0.00 0.00 0.00 65 1010.6
20260505023006 23 271 3.2 4.8 0.00 0.00 0.00 64 1010.6
20260505022008 23 230 3.2 4.8 0.00 0.00 0.00 64 1010.5
20260505021010 23 195 3.2 6.4 0.00 0.00 0.00 65 1010.5
20260505020012 23 196 4.8 8.0 0.00 0.00 0.00 64 1010.5
20260505015006 23 247 3.2 4.8 0.00 0.00 0.00 63 1010.5
20260505014007 25 192 3.2 6.4 0.00 0.00 0.00 62 1010.5
20260505013007 25 222 3.2 6.4 0.00 0.00 0.00 61 1010.5
20260505012007 25 195 3.2 6.4 0.00 0.00 0.00 61 1010.5
20260505011007 25 212 4.8 8.0 0.00 0.00 0.00 60 1010.6
20260505010011 26 66 3.2 4.8 0.00 0.00 0.00 59 1010.8
20260505005008 26 234 4.8 6.4 0.00 0.00 0.00 59 1010.8
20260505004007 26 232 4.8 8.0 0.00 0.00 0.00 58 1010.8
20260505003009 26 193 3.2 4.8 0.00 0.00 0.00 58 1010.8
20260505002011 26 210 4.8 8.0 0.00 0.00 0.00 59 1010.8
20260505001006 26 217 4.8 8.0 0.00 0.00 0.00 58 1010.9
20260505000007 26 196 4.8 8.0 0.00 0.00 0.00 59 1011.0
20260504235007 26 253 4.8 8.0 0.00 0.00 0.00 59 1011.0
20260504234009 26 184 6.4 11.3 0.00 0.00 0.00 59 1011.1
20260504233006 26 201 4.8 6.4 0.00 0.00 0.00 59 1011.1
20260504232006 26 236 3.2 4.8 0.00 0.00 0.00 59 1011.2
20260504231010 25 248 3.2 4.8 0.00 0.00 0.00 60 1011.3
20260504230013 25 242 4.8 8.0 0.00 0.00 0.00 60 1011.3
20260504225007 25 195 4.8 8.0 0.00 0.00 0.00 61 1011.6
20260504224011 25 194 4.8 9.7 0.00 0.00 0.00 62 1011.7
20260504223007 25 196 3.2 8.0 0.00 0.00 0.00 60 1011.8
20260504222008 25 299 3.2 6.4 0.00 0.00 0.00 61 1011.9
20260504221008 24 198 3.2 8.0 0.00 0.00 0.00 61 1012.1
20260504220006 23 241 3.2 4.8 0.00 0.00 0.00 61 1012.2
20260504215009 23 241 4.8 6.4 0.00 0.00 0.00 63 1012.3
20260504214010 23 192 3.2 8.0 0.00 0.00 0.00 62 1012.4
20260504213008 23 236 3.2 8.0 0.00 0.00 0.00 63 1012.5
20260504212009 22 218 3.2 4.8 0.00 0.00 0.00 64 1012.6
20260504211007 22 204 4.8 6.4 0.00 0.00 0.00 65 1012.9
20260504210008 22 268 4.8 8.0 0.00 0.00 0.00 65 1013.0
20260504205010 22 254 4.8 8.0 0.00 0.00 0.00 65 1013.1
20260504204007 22 229 3.2 6.4 0.00 0.00 0.00 67 1013.3
20260504203008 21 293 3.2 6.4 0.00 0.00 0.00 68 1013.5
20260504202011 21 225 3.2 6.4 0.00 0.00 0.00 67 1013.5
20260504201010 21 223 3.2 6.4 0.00 0.00 0.00 69 1013.6
20260504200006 20 218 3.2 4.8 0.00 0.00 0.00 71 1013.7
20260504195006 20 270 3.2 8.0 0.00 0.00 0.00 71 1013.7
20260504194008 20 291 3.2 6.4 0.00 0.00 0.00 71 1013.8
20260504193007 20 218 3.2 6.4 0.00 0.00 0.00 72 1014.0
20260504192011 19 239 4.8 8.0 0.00 0.00 0.00 72 1014.0
20260504191006 18 253 4.8 8.0 0.00 0.00 0.00 74 1014.0
20260504190008 18 197 4.8 8.0 0.00 0.00 0.00 76 1014.1
20260504185010 17 260 3.2 4.8 0.00 0.00 0.00 78 1014.2
20260504184009 17 278 3.2 4.8 0.00 0.00 0.00 79 1014.2
20260504183010 17 251 1.6 3.2 0.00 0.00 0.00 78 1014.2
20260504182006 17 231 3.2 6.4 0.00 0.00 0.00 79 1014.1
20260504181008 16 199 4.8 6.4 0.00 0.00 0.00 80 1014.2
20260504180006 16 225 1.6 4.8 0.00 0.00 0.00 80 1014.2
20260504175008 16 216 3.2 6.4 0.00 0.00 0.00 81 1014.2
20260504174007 16 297 3.2 4.8 0.00 0.00 0.00 82 1014.3
20260504173010 16 213 3.2 4.8 0.00 0.00 0.00 83 1014.2
20260504172008 16 232 3.2 4.8 0.00 0.00 0.00 83 1014.1
20260504171005 15 274 1.6 3.2 0.00 0.00 0.00 84 1014.1
20260504151010 13 0.0 0.0 0.00 0.00 0.00 92 1013.6
20260504141007 10 0.0 0.0 0.00 0.00 0.00 99 1013.0
20260504081010 17 0.0 0.0 0.00 0.00 0.00 68 1008.8